Weather History for Joplin, MO

Change the Weather History Date:

Saturday, October 1, 2011

  Actual Average Record
Temperature  
Mean Temperature 56 °F 64 °F  
Max Temperature 73 °F 76 °F 94 °F (1953)
Min Temperature 39 °F 53 °F 32 °F (1985)
Degree Days  
Heating Degree Days 9 4  
Month to date heating degree days 9 4  
Since 1 July heating degree days 72 46  
Cooling Degree Days 0 3  
Month to date cooling degree days 0 3  
Year to date cooling degree days 2133 1645  
Growing Degree Days 6 (Base 50)    
Moisture  
Dew Point 39 °F    
Average Humidity 59    
Maximum Humidity 93    
Minimum Humidity 24    
Precipitation  
Precipitation 0.00 in 0.14 in 1.35 in (1986)
Month to date precipitation 0.00 0.14  
Year to date precipitation 29.85 36.06  
Snow  
Snow 0.00 in - - ()
Month to date snowfall 0.0  
Snow Depth 0.00 in    
Sea Level Pressure  
Sea Level Pressure 30.24 in    
Wind  
Wind Speed 5 mph (ENE)    
Max Wind Speed 12 mph    
Max Gust Speed 15 mph    
Visibility 10 miles    
Events      
T = Trace of Precipitation, MM = Missing Value Source: NWS Daily Summary

Daily Weather History Graph

Daily Weather History Graph

Search for Another Location

Airport:

Trip Planner

Search our weather history database for the weather conditions in past years. The results will help you decide how hot, cold, wet, or windy it might be!

Date:

Astronomy

Oct. 01, 2011 Rise Set
Actual Time 7:13 AM CDT 7:01 PM CDT
Civil Twilight 6:47 AM CDT 7:27 PM CDT
Nautical Twilight 6:17 AM CDT 7:57 PM CDT
Astronomical Twilight 5:46 AM CDT 8:27 PM CDT
Moon 12:12 PM CDT (10/1) 10:07 PM CDT (10/1)
Length of Visible Light 12h 40m
Length of Day
11h 48m
Waxing Crescent, 24% of the Moon is Illuminated
Oct 1
Waxing Crescent
Oct 3
First Quarter
Oct 11
Full
Oct 19
Last Quarter
Oct 26
New

Hourly Weather History & Observations

Time (CDT) Temp. Windchill Dew Point Humidity Pressure Visibility Wind Dir Wind Speed Gust Speed Precip Events Conditions
12:53 AM 46.9 °F - 43.0 °F 86% 30.18 in 10.0 mi Calm Calm - N/A   Clear
1:53 AM 45.0 °F - 42.1 °F 90% 30.19 in 10.0 mi Calm Calm - N/A   Clear
2:53 AM 44.1 °F - 41.0 °F 89% 30.20 in 10.0 mi Calm Calm - N/A   Clear
3:53 AM 44.1 °F - 41.0 °F 89% 30.20 in 10.0 mi Calm Calm - N/A   Clear
4:53 AM 42.1 °F 40.2 °F 39.9 °F 92% 30.22 in 10.0 mi SSW 3.5 mph - N/A   Clear
5:53 AM 41.0 °F - 39.0 °F 93% 30.23 in 10.0 mi Calm Calm - N/A   Clear
6:53 AM 39.9 °F - 37.9 °F 93% 30.25 in 10.0 mi Calm Calm - N/A   Clear
7:53 AM 42.1 °F - 39.9 °F 92% 30.27 in 10.0 mi Calm Calm - N/A   Clear
8:53 AM 50.0 °F - 42.8 °F 76% 30.28 in 10.0 mi ENE 3.5 mph - N/A   Clear
9:53 AM 59.0 °F - 44.6 °F 59% 30.29 in 10.0 mi ESE 6.9 mph - N/A   Clear
10:53 AM 64.9 °F - 42.1 °F 43% 30.28 in 10.0 mi ENE 9.2 mph - N/A   Clear
11:53 AM 68.0 °F - 37.0 °F 32% 30.28 in 10.0 mi ENE 8.1 mph - N/A   Clear
12:53 PM 69.1 °F - 37.9 °F 32% 30.28 in 10.0 mi NE 5.8 mph - N/A   Clear
1:53 PM 71.1 °F - 37.0 °F 29% 30.25 in 10.0 mi ENE 5.8 mph - N/A   Clear
2:53 PM 71.6 °F - 35.6 °F 27% 30.24 in 10.0 mi NNE 10.4 mph - N/A   Clear
3:53 PM 73.0 °F - 35.1 °F 25% 30.22 in 10.0 mi ENE 9.2 mph - N/A   Clear
4:53 PM 72.0 °F - 32.0 °F 23% 30.22 in 10.0 mi NE 8.1 mph - N/A   Clear
5:53 PM 71.1 °F - 34.0 °F 26% 30.21 in 10.0 mi NNE 5.8 mph - N/A   Clear
6:53 PM 66.2 °F - 35.6 °F 32% 30.22 in 10.0 mi NE 5.8 mph - N/A   Clear
7:53 PM 61.0 °F - 37.9 °F 42% 30.23 in 10.0 mi ENE 5.8 mph - N/A   Clear
8:53 PM 57.9 °F - 39.0 °F 49% 30.23 in 10.0 mi East 5.8 mph - N/A   Clear
9:53 PM 55.9 °F - 39.9 °F 55% 30.23 in 10.0 mi East 4.6 mph - N/A   Clear
10:53 PM 54.0 °F - 41.0 °F 62% 30.23 in 10.0 mi ESE 8.1 mph - N/A   Clear
11:53 PM 54.0 °F - 39.9 °F 59% 30.23 in 10.0 mi ESE 8.1 mph - N/A   Clear